[[{"header":{"parameterUnit":"m.s-1","parameterCategory":1,"la1":30.2991,"la2":30.254,"lo1":-89.0895,"lo2":-89.0444,"dy":0.0017,"dx":0.0017,"nx":28,"ny":28,"refTime":"2024-03-27T21:00:00:Z","depth":0,"parameterNumber":2,"parameterNumberName":"U-component_of_WINDS"},"data":[0,0,0,0,0,0,0,0,0,0,0,0,0,0,0,0,0,0,0,0,0,0,0,0,0,0,0,0,0,0,0,0,0,0,0,0,0,0,0,0,0,0,0,0,0,0,0,0,0,0,0,0,0,0,0,0,0,0,2.1322,2.1322,0,2.1305,2.1305,2.1305,2.1266,2.1265,2.1264,2.1264,2.1246,2.1247,2.1247,0,0,0,0,0,0,0,0,0,0,0,0,0,2.1323,2.1323,2.1322,2.1322,2.1322,2.1305,2.1305,2.1305,2.1266,2.1265,2.1264,2.1263,2.1246,2.1247,2.1247,0,0,0,0,0,0,0,0,0,0,0,0,0,2.1316,2.1323,2.1322,2.1301,2.1298,2.1305,2.1305,2.1304,2.1266,2.1265,2.1264,2.1263,2.1246,2.1247,2.1247,2.1273,0,0,2.1248,2.1248,0,0,0,0,0,0,0,0,2.1316,2.1316,2.1304,2.1302,2.13,2.1286,2.1299,2.1294,2.1267,2.1279,2.1264,2.1262,2.1261,2.126,2.1259,2.1273,2.1272,2.1248,2.1249,2.1249,2.1249,0,0,0,0,0,0,0,2.1317,2.1317,2.1315,2.1304,2.1301,2.1292,2.129,2.1298,2.1277,2.1277,2.1275,2.1273,2.1259,2.1259,2.1259,2.1272,2.1248,2.1249,2.1249,2.1249,2.1306,2.1307,0,0,0,0,0,0,2.132,2.1317,2.1316,2.1315,2.1305,2.1293,2.129,2.1292,2.1276,2.1273,2.1274,2.1271,2.1259,2.1258,2.1258,2.1287,2.1249,2.1249,2.1249,2.1305,2.1306,2.1308,0,0,0,0,0,0,2.1321,2.1321,2.1317,2.1315,2.1314,2.1294,2.1296,2.1292,2.1292,2.1274,2.127,2.1277,2.1258,2.1257,2.127,2.1286,2.1249,2.125,2.1303,2.1305,2.1307,2.1347,0,0,0,0,0,0,2.1321,2.1321,2.133,2.1316,2.1314,2.1329,2.1297,2.1293,2.1292,2.1289,2.1276,2.1273,2.1257,2.1269,2.127,2.1286,2.125,2.1302,2.1304,2.1306,2.1344,2.135,2.1355,0,0,0,0,0,2.1321,2.1342,2.1331,2.1331,2.1326,2.133,2.1329,2.131,2.1294,2.1303,2.1292,2.1273,2.1285,2.1271,2.1272,2.1288,2.13,2.1303,2.1306,2.1341,2.1349,2.1355,0,0,0,0,0,0,2.1359,2.134,2.1327,2.1344,2.1339,2.1323,2.1334,2.1318,2.1317,2.1314,2.1291,2.1288,2.1304,2.1297,2.1283,2.1313,2.1289,2.1293,2.1316,2.1323,2.1328,2.1329,2.125,0,0,0,0,0,2.137,2.1375,2.1358,2.1374,2.1372,2.1354,2.1355,2.1341,2.1335,2.1332,2.1322,2.1316,2.1319,2.1321,2.1322,2.1343,2.134,2.1355,2.136,2.1365,2.1367,2.1378,2.1385,2.1317,2.1317,2.1317,0,0,2.1391,2.1382,2.1386,2.1382,2.1376,2.1382,2.1352,2.1359,2.1363,2.1333,2.1344,2.1337,2.1329,2.1346,2.1353,2.1341,2.1386,2.1369,2.1372,2.1372,2.1382,2.1388,2.1394,2.1319,2.1318,2.1318,0,0,2.1433,2.1427,2.144,2.1435,2.1426,2.1414,2.1418,2.1404,2.1398,2.1409,2.1387,2.1391,2.1396,2.1391,2.139,2.1432,2.1414,2.1433,2.1461,2.1472,2.1477,2.1482,2.1496,2.1501,2.1436,2.1436,2.1436,0,2.1461,2.1468,2.1448,2.1457,2.1456,2.143,2.1443,2.1439,2.1432,2.1432,2.1419,2.1424,2.1417,2.1433,2.1443,2.1443,2.1446,2.1433,2.1478,2.1482,2.1486,2.15,2.1505,2.1438,2.1438,2.1438,2.1437,0,2.1502,2.1508,2.152,2.1513,2.1514,2.1525,2.1507,2.151,2.1497,2.1487,2.1498,2.1489,2.1488,2.1491,2.1478,2.1505,2.1498,2.1482,2.1458,2.1495,2.1507,2.1512,2.1441,2.1441,2.144,2.1439,0,0,2.1566,2.1549,2.1554,2.1551,2.154,2.1544,2.1555,2.1554,2.1556,2.1553,2.1561,2.1566,2.1551,2.1549,2.1536,2.1546,2.1579,2.1528,2.1528,2.1537,2.1608,2.1619,2.1625,2.1568,2.1569,2.157,2.1608,0,2.1604,2.162,2.1603,2.1623,2.1628,2.1604,2.1613,2.1608,2.1599,2.1602,2.1592,2.1596,2.1576,2.1575,2.1583,2.1573,2.1593,2.157,2.1575,2.1575,2.1576,2.1632,2.1643,2.168,2.1613,2.1614,2.1614,0,2.1651,2.1649,2.1669,2.1658,2.1659,2.1667,2.1665,2.1669,2.1663,2.1656,2.1655,2.1639,2.1648,2.1626,2.1639,2.1624,2.1626,2.1621,2.1622,2.162,2.1596,2.1631,2.1691,2.1696,2.1622,2.1621,2.162,0,2.1694,2.1697,2.1709,2.1708,2.1695,2.1701,2.1697,2.1689,2.169,2.1689,2.1689,2.1689,2.1689,2.169,2.1674,2.166,2.1689,2.1666,2.1683,2.1684,2.1689,2.1688,2.1749,2.1692,2.1692,2.1692,2.1692,0,2.1738,2.175,2.1728,2.1736,2.175,2.1731,2.1746,2.1739,2.1733,2.1739,2.1719,2.1725,2.1705,2.1709,2.1697,2.1709,2.171,2.1704,2.1701,2.1705,2.1706,2.1704,2.1701,2.1693,2.1693,2.1693,2.1693,0,2.1787,2.1773,2.1785,2.1773,2.177,2.1781,2.177,2.1777,2.1767,2.1775,2.1775,2.176,2.1764,2.1749,2.1751,2.1743,2.1761,2.1754,2.1763,2.176,2.1778,2.1776,2.1839,2.1846,2.1786,2.1786,2.1787,0,2.1815,2.1825,2.1813,2.1816,2.1812,2.1816,2.1817,2.18,2.1802,2.1796,2.1803,2.1806,2.1806,2.1814,2.1803,2.1804,2.1796,2.1818,2.1796,2.18,2.1795,2.1794,2.1795,2.1822,2.1823,2.1824,2.1824,0,2.1866,2.1859,2.1861,2.186,2.1862,2.1861,2.1858,2.1862,2.1843,2.1846,2.185,2.1851,2.1852,2.1855,2.1854,2.1849,2.1834,2.1832,2.1835,2.1839,2.1843,2.184,2.1774,2.183,2.1829,2.1829,2.1828,2.1828,2.1905,2.1912,2.1906,2.1908,2.1905,2.1903,2.1909,2.19,2.1903,2.1903,2.1893,2.1899,2.1893,2.1891,2.1888,2.1892,2.1882,2.1888,2.1889,2.189,2.1893,2.1844,2.1892,2.1892,2.1892,2.1892,2.1891,0,2.1954,2.1949,2.1952,2.1949,2.1952,2.1937,2.1934,2.1937,2.1942,2.1939,2.194,2.1945,2.1947,2.1937,2.1939,2.1944,2.1937,2.1945,2.1944,2.1943,2.1902,2.1898,2.1951,2.1951,2.1951,2.1951,2.1951,2.1951,2.198,2.1991,2.1983,2.1993,2.1988,2.1993,2.1993,2.1991,2.1988,2.1994,2.1996,2.199,2.1984,2.1985,2.1987,2.1984,2.1985,2.1995,2.1989,2.1951,2.1946,2.194,2.1936,2.1995,2.1996,2.2029,2.2029,2.203]},{"header":{"parameterUnit":"m.s-1","parameterCategory":1,"la1":30.2991,"la2":30.254,"lo1":-89.0895,"lo2":-89.0444,"dy":0.0017,"dx":0.0017,"nx":28,"ny":28,"refTime":"2024-03-27T21:00:00:Z","depth":0,"parameterNumber":3,"parameterNumberName":"V-component_of_WINDS"},"data":[0,0,0,0,0,0,0,0,0,0,0,0,0,0,0,0,0,0,0,0,0,0,0,0,0,0,0,0,0,0,0,0,0,0,0,0,0,0,0,0,0,0,0,0,0,0,0,0,0,0,0,0,0,0,0,0,0,0,-6.2347,-6.235,0,-6.2577,-6.258,-6.2582,-6.2562,-6.2559,-6.2555,-6.2552,-6.2783,-6.2793,-6.2802,0,0,0,0,0,0,0,0,0,0,0,0,0,-6.1889,-6.1898,-6.2347,-6.235,-6.2353,-6.2576,-6.258,-6.2583,-6.2563,-6.2558,-6.2554,-6.255,-6.278,-6.2791,-6.2803,0,0,0,0,0,0,0,0,0,0,0,0,0,-6.21,-6.19,-6.2347,-6.237,-6.2374,-6.2576,-6.258,-6.2584,-6.2564,-6.2558,-6.2553,-6.2548,-6.2777,-6.279,-6.2804,-6.2996,0,0,-6.2847,-6.2854,0,0,0,0,0,0,0,0,-6.2088,-6.2117,-6.2364,-6.2369,-6.2374,-6.2536,-6.2503,-6.2722,-6.2565,-6.2492,-6.2552,-6.2546,-6.2705,-6.2725,-6.2779,-6.3007,-6.3017,-6.2849,-6.2857,-6.2863,-6.2867,0,0,0,0,0,0,0,-6.2074,-6.2107,-6.2438,-6.2367,-6.2374,-6.2368,-6.2392,-6.2544,-6.2625,-6.2498,-6.2497,-6.2524,-6.2707,-6.2766,-6.2784,-6.3021,-6.2848,-6.2861,-6.287,-6.2875,-6.3419,-6.3425,0,0,0,0,0,0,-6.2054,-6.2095,-6.2431,-6.2445,-6.2215,-6.2381,-6.2408,-6.2489,-6.2623,-6.2639,-6.2529,-6.2523,-6.2744,-6.2768,-6.2792,-6.3028,-6.2863,-6.2877,-6.2885,-6.3413,-6.342,-6.3427,0,0,0,0,0,0,-6.2044,-6.2084,-6.2421,-6.227,-6.2312,-6.2394,-6.2485,-6.2496,-6.2555,-6.2647,-6.266,-6.2574,-6.2741,-6.2773,-6.2946,-6.3035,-6.2883,-6.2896,-6.3406,-6.3415,-6.3424,-6.3499,0,0,0,0,0,0,-6.2031,-6.2081,-6.2155,-6.2272,-6.2321,-6.2573,-6.2491,-6.2505,-6.258,-6.2574,-6.2693,-6.2708,-6.2739,-6.2925,-6.2961,-6.3052,-6.2907,-6.3399,-6.341,-6.3421,-6.3489,-6.3509,-6.3527,0,0,0,0,0,-6.2015,-6.2166,-6.2159,-6.22,-6.2416,-6.2578,-6.2606,-6.264,-6.2587,-6.2663,-6.2721,-6.2704,-6.302,-6.2943,-6.2983,-6.308,-6.3393,-6.3407,-6.342,-6.348,-6.3505,-6.3526,0,0,0,0,0,0,-6.2057,-6.2182,-6.2175,-6.2369,-6.2463,-6.2574,-6.267,-6.2665,-6.2775,-6.2765,-6.2802,-6.2829,-6.3004,-6.3059,-6.2972,-6.3273,-6.3199,-6.3221,-6.3231,-6.3256,-6.3275,-6.3258,-6.2919,0,0,0,0,0,-6.2088,-6.2211,-6.2313,-6.2474,-6.2522,-6.2588,-6.266,-6.2678,-6.2777,-6.2816,-6.2888,-6.2983,-6.3104,-6.3182,-6.3299,-6.3496,-6.3522,-6.3582,-6.3601,-6.3616,-6.3635,-6.3745,-6.3773,-6.3471,-6.3471,-6.3471,0,0,-6.2155,-6.2239,-6.2314,-6.2485,-6.256,-6.2685,-6.2622,-6.2756,-6.285,-6.2836,-6.3006,-6.3061,-6.317,-6.3357,-6.3443,-6.3408,-6.3724,-6.3633,-6.3645,-6.3656,-6.3761,-6.379,-6.3815,-6.348,-6.3478,-6.3477,0,0,-6.2342,-6.2417,-6.256,-6.2637,-6.2752,-6.2795,-6.283,-6.2942,-6.2979,-6.315,-6.3143,-6.3253,-6.346,-6.3539,-6.3606,-6.3823,-6.3811,-6.3859,-6.3959,-6.4065,-6.4089,-6.411,-6.4189,-6.4217,-6.3877,-6.3878,-6.3878,0,-6.241,-6.26,-6.2634,-6.2771,-6.2847,-6.2841,-6.2987,-6.3059,-6.3206,-6.3258,-6.3217,-6.3478,-6.355,-6.3756,-6.3809,-6.3863,-6.3904,-6.3847,-6.4083,-6.4105,-6.4125,-6.4201,-6.423,-6.3883,-6.3882,-6.3882,-6.3881,0,-6.2679,-6.2811,-6.2912,-6.3056,-6.3143,-6.3283,-6.3338,-6.3422,-6.3432,-6.348,-6.3654,-6.3741,-6.3875,-6.3925,-6.3936,-6.4133,-6.4108,-6.4075,-6.4001,-6.4159,-6.423,-6.4259,-6.389,-6.3888,-6.3887,-6.3886,0,0,-6.2899,-6.306,-6.3097,-6.3163,-6.329,-6.3392,-6.3531,-6.3664,-6.3736,-6.3837,-6.3955,-6.4131,-6.4102,-6.4178,-6.4197,-6.4291,-6.4459,-6.4246,-6.4249,-6.4284,-6.4682,-6.4708,-6.4741,-6.4451,-6.4457,-6.4461,-6.4674,0,-6.3099,-6.3349,-6.3384,-6.3604,-6.3727,-6.3723,-6.3845,-6.3936,-6.3984,-6.4094,-6.4146,-6.4271,-6.4222,-6.4268,-6.436,-6.4419,-6.4539,-6.4404,-6.4562,-6.4567,-6.4537,-6.4778,-6.4805,-6.5002,-6.4702,-6.4707,-6.471,0,-6.3366,-6.3477,-6.371,-6.3821,-6.3874,-6.3983,-6.4109,-6.4214,-6.4316,-6.4345,-6.443,-6.4439,-6.4583,-6.4503,-6.4702,-6.4609,-6.4676,-6.4714,-6.4723,-6.474,-6.4649,-6.4803,-6.5065,-6.5095,-6.4754,-6.4751,-6.4747,0,-6.3505,-6.3712,-6.3879,-6.3935,-6.4068,-6.4145,-6.4204,-6.4302,-6.438,-6.4488,-6.4539,-6.4663,-6.4731,-6.4826,-6.4867,-6.4805,-6.5065,-6.4988,-6.5093,-6.5092,-6.5149,-6.5145,-6.5427,-6.5189,-6.5189,-6.5188,-6.5188,0,-6.3726,-6.3869,-6.3943,-6.4046,-6.4206,-6.4244,-6.4402,-6.4458,-6.4545,-6.4658,-6.4661,-6.4767,-6.4815,-6.4928,-6.496,-6.5122,-6.5152,-6.5179,-6.5186,-6.518,-6.5177,-6.5225,-6.5213,-6.5196,-6.5194,-6.5193,-6.5192,0,-6.3909,-6.3964,-6.4146,-6.4258,-6.4289,-6.4403,-6.4498,-6.4597,-6.4644,-6.4787,-6.4823,-6.4897,-6.503,-6.5081,-6.5242,-6.5265,-6.5452,-6.5447,-6.5418,-6.542,-6.5523,-6.5513,-6.5847,-6.5893,-6.5624,-6.5626,-6.5628,0,-6.4047,-6.4158,-6.4282,-6.4359,-6.4421,-6.4544,-6.4624,-6.4666,-6.4749,-6.4875,-6.4959,-6.5092,-6.5201,-6.5415,-6.5482,-6.5606,-6.5605,-6.5714,-6.5624,-6.5614,-6.5609,-6.5603,-6.5614,-6.5731,-6.5733,-6.5736,-6.5737,0,-6.4287,-6.4309,-6.4425,-6.4552,-6.4648,-6.4749,-6.4847,-6.4909,-6.4965,-6.5058,-6.5196,-6.528,-6.5447,-6.558,-6.5707,-6.5767,-6.5763,-6.5765,-6.5796,-6.5792,-6.5771,-6.5785,-6.5465,-6.5758,-6.5756,-6.5754,-6.5753,-6.5752,-6.4453,-6.4552,-6.4655,-6.4785,-6.4863,-6.4955,-6.5055,-6.5114,-6.523,-6.537,-6.5387,-6.5535,-6.5635,-6.5806,-6.5872,-6.5987,-6.5958,-6.6003,-6.6015,-6.6026,-6.6034,-6.5751,-6.601,-6.601,-6.6009,-6.6009,-6.6009,0,-6.4695,-6.4761,-6.488,-6.5018,-6.512,-6.5108,-6.5216,-6.5302,-6.5432,-6.5526,-6.5634,-6.5792,-6.5921,-6.5999,-6.6128,-6.6206,-6.6207,-6.6238,-6.6234,-6.6248,-6.6052,-6.6013,-6.6235,-6.6235,-6.6235,-6.6235,-6.6235,-6.6235,-6.4833,-6.4999,-6.5034,-6.5239,-6.5305,-6.5451,-6.5514,-6.5599,-6.5674,-6.5852,-6.5959,-6.6009,-6.6097,-6.6233,-6.635,-6.637,-6.6418,-6.6452,-6.6469,-6.6285,-6.6261,-6.6239,-6.6203,-6.6462,-6.6462,-6.6656,-6.6658,-6.6659]}]]